Regional Weather Roundup
Issued by NWS

Home | Current Version | Previous Version | Graphics & Text | Print | Product List | Glossary On
Versions: 1 2 3 4 5 6 7 8 9 10 11 12 13 14 15 16 17 18 19 20 21 22 23 24 25 26 27 28 29 30 31 32 33 34 35 36 37 38 39 40 41 42 43 44 45 46 47 48 49 50
000
ASUS45 KSLC 280310
RWRUT

UTAH REGIONAL WEATHER ROUNDUP
NATIONAL WEATHER SERVICE SALT LAKE CITY UT
900 PM MDT FRI MAR 27 2015

UTZ001>011-023>025-280400-

NORTHERN UTAH

CITY           SKY/WX    TMP DP  RH WIND       PRES   REMARKS
BRIGHAM CITY   CLEAR     59  42  54 CALM      30.15S
HILL AFB       CLEAR     59  30  32 E7        30.16S
LOGAN          CLEAR     55  37  50 E6        30.15S
OGDEN          CLEAR     57  32  38 SE5       30.14F
PROVO AIRPORT  CLEAR     54  34  47 CALM      30.17R
SALT LAKE CITY CLEAR     60  33  36 N5        30.14S
VERNAL         PTCLDY    54  29  38 W6        30.17R
WENDOVER       CLEAR     57  25  28 NE6       30.13S
HEBER CITY     CLEAR     52  28  40 E5        30.21R
WEST JORDAN    CLEAR     55  36  47 W7        30.17S

$$

UTZ012>022-026-027-280400-

SOUTHERN/CENTRAL UTAH

CITY           SKY/WX    TMP DP  RH WIND       PRES   REMARKS
BLANDING       CLEAR     52  22  30 N12       30.28R
BRYCE CANYON   CLEAR     52  25  35 W9        30.32R
CEDAR CITY     CLEAR     55  25  31 S6        30.21R
DELTA          CLEAR     63  25  23 SE6       30.17R
HANKSVILLE     CLEAR     54  19  26 SE3       30.16R
MILFORD        CLEAR     53  27  36 SE6       30.17R
MOAB/CYNLANDS  CLEAR     59  22  24 SW3       30.13R
PRICE          CLEAR     57  23  26 N7        30.20R
ST GEORGE      CLEAR     72  25  17 S6        30.10R
KANAB          CLEAR     61  23  23 N6        30.22R

$$

REGIONAL REPORTS     COLORADO/ARIZONA

CITY           SKY/WX    TMP DP  RH WIND       PRES   REMARKS
CRAIG, CO      CLEAR     48  31  51 SW5       30.20R
GRAND JUNCTION CLEAR     61  24  24 N12       30.15R
RIFLE          CLEAR     51  26  37 SE6       30.19R
MONTROSE       CLEAR     53  23  31 E6        30.23R
CORTEZ         CLEAR     48  23  37 NE8       30.23R
PAGE, AZ       CLEAR     68  24  19 CALM      30.13R
GRAND CANYON   CLEAR     41  22  46 CALM      30.30R
KINGMAN        CLEAR     63  23  21 S14       30.13R
FLAGSTAFF      CLEAR     53  18  25 SW3       30.32R

$$

REGIONAL REPORTS    NEVADA/IDAHO/WYOMING

CITY           SKY/WX    TMP DP  RH WIND       PRES   REMARKS
LAS VEGAS, NV  CLEAR     81  21  11 CALM      29.99R
ELY            CLEAR     58  19  22 SE9       30.20R
ELKO           CLEAR     58  30  34 CALM      30.11S
POCATELLO, ID  CLEAR     59  31  34 S13       30.11R
BURLEY         CLEAR     55  39  54 CALM      30.07R
EVANSTON, WY   CLEAR     48  28  46 W10       30.26R
ROCK SPRINGS   CLEAR     54  24  31 W13       30.22R
KEMMERER       CLEAR     46  30  53 W5        30.26S

$$



USA.gov is the U.S. government's official web portal to all federal, state and local government web resources and services.